Time,TemperatureF,DewpointF,PressureIn,WindDirection,WindDirectionDegrees,WindSpeedMPH,WindSpeedGustMPH,Humidity,HourlyPrecipIn,Conditions,Clouds,dailyrainin,SoftwareType,DateUTC
2018-01-20 00:02:00,47.7,41.2,30.10,SSW,196,16.0,23.0,78,0.00,,,0.00,WeatherCatV2.44B2,2018-01-20 06:02:00,
2018-01-20 00:07:00,47.7,41.2,30.10,SSW,193,11.0,22.0,78,0.00,,,0.00,WeatherCatV2.44B2,2018-01-20 06:07:00,
2018-01-20 00:12:00,47.5,41.0,30.10,SSW,192,14.0,20.0,78,0.00,,,0.00,WeatherCatV2.44B2,2018-01-20 06:12:00,
2018-01-20 00:17:00,47.3,40.8,30.10,SSW,213,14.0,24.0,78,0.00,,,0.00,WeatherCatV2.44B2,2018-01-20 06:17:00,
2018-01-20 00:22:00,47.1,40.9,30.10,SSW,198,13.0,20.0,79,0.00,,,0.00,WeatherCatV2.44B2,2018-01-20 06:22:00,
2018-01-20 00:27:00,47.1,40.6,30.10,SSW,194,19.0,26.0,78,0.00,,,0.00,WeatherCatV2.44B2,2018-01-20 06:27:00,
2018-01-20 00:32:00,47.0,40.8,30.10,SSW,202,18.0,22.0,79,0.00,,,0.00,WeatherCatV2.44B2,2018-01-20 06:32:00,
2018-01-20 00:37:00,46.9,40.7,30.10,SSW,198,15.0,25.0,79,0.00,,,0.00,WeatherCatV2.44B2,2018-01-20 06:37:00,
2018-01-20 00:42:00,46.9,40.4,30.10,SSW,192,12.0,20.0,78,0.00,,,0.00,WeatherCatV2.44B2,2018-01-20 06:42:00,
2018-01-20 00:47:00,46.8,40.6,30.10,SSW,194,15.0,20.0,79,0.00,,,0.00,WeatherCatV2.44B2,2018-01-20 06:47:00,
2018-01-20 00:52:00,46.6,40.4,30.10,SSW,192,13.0,19.0,79,0.00,,,0.00,WeatherCatV2.44B2,2018-01-20 06:52:00,
2018-01-20 00:57:00,46.5,40.7,30.10,South,183,21.0,21.0,80,0.00,,,0.00,WeatherCatV2.44B2,2018-01-20 06:57:00,
2018-01-20 01:01:00,46.5,40.3,30.10,SSW,203,14.0,18.0,79,0.00,,,0.00,WeatherCatV2.44B2,2018-01-20 07:01:00,
2018-01-20 01:06:00,46.5,40.3,30.10,SSW,198,16.0,19.0,79,0.00,,,0.00,WeatherCatV2.44B2,2018-01-20 07:06:00,
2018-01-20 01:11:00,46.3,40.2,30.10,SSW,202,15.0,15.0,79,0.00,,,0.00,WeatherCatV2.44B2,2018-01-20 07:11:00,
2018-01-20 01:16:00,46.3,40.2,30.10,SSW,194,13.0,16.0,79,0.00,,,0.00,WeatherCatV2.44B2,2018-01-20 07:16:00,
2018-01-20 01:21:00,46.4,40.2,30.10,SSW,202,16.0,18.0,79,0.00,,,0.00,WeatherCatV2.44B2,2018-01-20 07:21:00,
2018-01-20 01:26:00,46.3,39.8,30.10,SSW,201,15.0,16.0,78,0.00,,,0.00,WeatherCatV2.44B2,2018-01-20 07:26:00,
2018-01-20 01:31:00,46.1,39.6,30.10,SSW,192,14.0,16.0,78,0.00,,,0.00,WeatherCatV2.44B2,2018-01-20 07:31:00,
2018-01-20 01:36:00,46.0,39.9,30.10,SSW,192,12.0,23.0,79,0.00,,,0.00,WeatherCatV2.44B2,2018-01-20 07:36:00,
2018-01-20 01:41:00,46.1,40.0,30.10,SSW,197,16.0,16.0,79,0.00,,,0.00,WeatherCatV2.44B2,2018-01-20 07:41:00,
2018-01-20 01:46:00,46.1,39.6,30.10,South,171,10.0,15.0,78,0.00,,,0.00,WeatherCatV2.44B2,2018-01-20 07:46:00,
2018-01-20 01:51:00,46.3,40.2,30.10,SSW,194,13.0,20.0,79,0.00,,,0.00,WeatherCatV2.44B2,2018-01-20 07:51:00,
2018-01-20 01:56:00,46.2,39.7,30.10,SSW,192,14.0,16.0,78,0.00,,,0.00,WeatherCatV2.44B2,2018-01-20 07:56:00,
2018-01-20 02:01:00,46.2,39.7,30.10,SSW,193,12.0,18.0,78,0.00,,,0.00,WeatherCatV2.44B2,2018-01-20 08:01:00,
2018-01-20 02:06:00,46.1,39.6,30.10,South,178,10.0,15.0,78,0.00,,,0.00,WeatherCatV2.44B2,2018-01-20 08:06:00,
2018-01-20 02:11:00,46.2,39.7,30.10,SSW,204,14.0,15.0,78,0.00,,,0.00,WeatherCatV2.44B2,2018-01-20 08:11:00,
2018-01-20 02:16:00,46.4,39.9,30.10,SSW,194,13.0,16.0,78,0.00,,,0.00,WeatherCatV2.44B2,2018-01-20 08:16:00,
2018-01-20 02:21:00,46.4,39.6,30.10,SSW,206,14.0,19.0,77,0.00,,,0.00,WeatherCatV2.44B2,2018-01-20 08:21:00,
2018-01-20 02:26:00,46.5,39.7,30.10,SSW,198,12.0,18.0,77,0.00,,,0.00,WeatherCatV2.44B2,2018-01-20 08:26:00,
2018-01-20 02:31:00,46.5,39.7,30.11,SSW,198,14.0,15.0,77,0.00,,,0.00,WeatherCatV2.44B2,2018-01-20 08:31:00,
2018-01-20 02:36:00,46.6,39.8,30.10,SSW,200,14.0,14.0,77,0.00,,,0.00,WeatherCatV2.44B2,2018-01-20 08:36:00,
2018-01-20 02:41:00,46.6,39.8,30.11,SSW,194,14.0,16.0,77,0.00,,,0.00,WeatherCatV2.44B2,2018-01-20 08:41:00,
2018-01-20 02:46:00,46.8,40.0,30.10,South,186,10.0,16.0,77,0.00,,,0.00,WeatherCatV2.44B2,2018-01-20 08:46:00,
2018-01-20 02:51:00,46.9,40.1,30.10,South,188,14.0,15.0,77,0.00,,,0.00,WeatherCatV2.44B2,2018-01-20 08:51:00,
2018-01-20 02:56:00,47.0,40.2,30.10,SSW,197,12.0,16.0,77,0.00,,,0.00,WeatherCatV2.44B2,2018-01-20 08:56:00,
2018-01-20 03:01:00,47.1,40.3,30.10,South,190,14.0,16.0,77,0.00,,,0.00,WeatherCatV2.44B2,2018-01-20 09:01:00,
2018-01-20 03:06:00,47.1,40.3,30.10,South,180,11.0,16.0,77,0.00,,,0.00,WeatherCatV2.44B2,2018-01-20 09:06:00,
2018-01-20 03:11:00,47.2,40.4,30.10,SSW,197,10.0,19.0,77,0.00,,,0.00,WeatherCatV2.44B2,2018-01-20 09:11:00,
2018-01-20 03:16:00,47.2,40.4,30.10,SSW,197,12.0,18.0,77,0.00,,,0.00,WeatherCatV2.44B2,2018-01-20 09:16:00,
2018-01-20 03:21:00,47.3,40.5,30.10,SSW,209,13.0,16.0,77,0.00,,,0.00,WeatherCatV2.44B2,2018-01-20 09:21:00,
2018-01-20 03:26:00,47.4,40.6,30.10,SSW,196,14.0,16.0,77,0.00,,,0.00,WeatherCatV2.44B2,2018-01-20 09:26:00,
2018-01-20 03:31:00,47.5,41.0,30.10,South,188,12.0,20.0,78,0.00,,,0.00,WeatherCatV2.44B2,2018-01-20 09:31:00,
2018-01-20 03:36:00,47.5,40.7,30.09,SSW,198,15.0,19.0,77,0.00,,,0.00,WeatherCatV2.44B2,2018-01-20 09:36:00,
2018-01-20 03:41:00,47.4,40.6,30.09,SSW,198,16.0,16.0,77,0.00,,,0.00,WeatherCatV2.44B2,2018-01-20 09:41:00,
2018-01-20 03:46:00,47.4,40.6,30.09,South,178,11.0,19.0,77,0.00,,,0.00,WeatherCatV2.44B2,2018-01-20 09:46:00,
2018-01-20 03:51:00,47.6,41.1,30.08,South,188,13.0,21.0,78,0.00,,,0.00,WeatherCatV2.44B2,2018-01-20 09:51:00,
2018-01-20 03:56:00,47.6,41.1,30.08,SSW,196,16.0,20.0,78,0.00,,,0.00,WeatherCatV2.44B2,2018-01-20 09:56:00,
2018-01-20 04:01:00,47.7,41.2,30.08,South,182,14.0,19.0,78,0.00,,,0.00,WeatherCatV2.44B2,2018-01-20 10:01:00,
2018-01-20 04:06:00,47.7,41.2,30.08,SSW,199,10.0,19.0,78,0.00,,,0.00,WeatherCatV2.44B2,2018-01-20 10:06:00,
2018-01-20 04:11:00,47.7,41.5,30.08,South,189,16.0,20.0,79,0.00,,,0.00,WeatherCatV2.44B2,2018-01-20 10:11:00,
2018-01-20 04:16:00,47.7,41.2,30.08,SSW,192,14.0,18.0,78,0.00,,,0.00,WeatherCatV2.44B2,2018-01-20 10:16:00,
2018-01-20 04:21:00,47.7,41.5,30.08,SSE,164,11.0,22.0,79,0.00,,,0.00,WeatherCatV2.44B2,2018-01-20 10:21:00,
2018-01-20 04:26:00,47.7,41.5,30.08,SSW,198,18.0,19.0,79,0.00,,,0.00,WeatherCatV2.44B2,2018-01-20 10:26:00,
2018-01-20 04:31:00,47.7,41.5,30.08,SSW,194,14.0,18.0,79,0.00,,,0.00,WeatherCatV2.44B2,2018-01-20 10:31:00,
2018-01-20 04:36:00,47.7,41.5,30.08,SSW,196,10.0,13.0,79,0.00,,,0.00,WeatherCatV2.44B2,2018-01-20 10:36:00,
2018-01-20 04:41:00,47.7,41.5,30.08,South,188,10.0,18.0,79,0.00,,,0.00,WeatherCatV2.44B2,2018-01-20 10:41:00,
2018-01-20 04:46:00,47.8,41.6,30.08,South,190,10.0,13.0,79,0.00,,,0.00,WeatherCatV2.44B2,2018-01-20 10:46:00,
2018-01-20 04:51:00,47.8,41.9,30.07,SSW,203,13.0,15.0,80,0.00,,,0.00,WeatherCatV2.44B2,2018-01-20 10:51:00,
2018-01-20 04:56:00,47.8,41.9,30.07,South,191,13.0,16.0,80,0.00,,,0.00,WeatherCatV2.44B2,2018-01-20 10:56:00,
2018-01-20 05:01:00,47.9,42.0,30.07,SSW,205,10.0,18.0,80,0.00,,,0.00,WeatherCatV2.44B2,2018-01-20 11:01:00,
2018-01-20 05:06:00,47.9,42.0,30.07,South,191,15.0,16.0,80,0.00,,,0.00,WeatherCatV2.44B2,2018-01-20 11:06:00,
2018-01-20 05:11:00,48.0,42.1,30.07,SSW,192,13.0,18.0,80,0.00,,,0.00,WeatherCatV2.44B2,2018-01-20 11:11:00,
2018-01-20 05:16:00,48.1,42.5,30.07,SSW,200,13.0,19.0,81,0.00,,,0.00,WeatherCatV2.44B2,2018-01-20 11:16:00,
2018-01-20 05:21:00,48.1,42.5,30.07,SSW,197,9.0,16.0,81,0.00,,,0.00,WeatherCatV2.44B2,2018-01-20 11:21:00,
2018-01-20 05:26:00,48.1,42.5,30.07,South,190,12.0,16.0,81,0.00,,,0.00,WeatherCatV2.44B2,2018-01-20 11:26:00,
2018-01-20 05:31:00,48.2,42.7,30.07,SSW,198,15.0,20.0,81,0.00,,,0.00,WeatherCatV2.44B2,2018-01-20 11:31:00,
2018-01-20 05:32:00,48.2,42.7,30.07,SSE,167,9.0,20.0,81,0.00,,,0.00,WeatherCatV2.44B2,2018-01-20 11:32:00,
2018-01-20 05:37:00,48.3,43.1,30.06,South,184,16.0,18.0,82,0.00,,,0.00,WeatherCatV2.44B2,2018-01-20 11:37:00,
2018-01-20 05:42:00,48.3,43.1,30.06,South,188,11.0,18.0,82,0.00,,,0.00,WeatherCatV2.44B2,2018-01-20 11:42:00,
2018-01-20 05:47:00,48.3,43.4,30.07,South,184,15.0,21.0,83,0.00,,,0.00,WeatherCatV2.44B2,2018-01-20 11:47:00,
2018-01-20 05:52:00,48.4,43.5,30.07,South,190,14.0,16.0,83,0.00,,,0.00,WeatherCatV2.44B2,2018-01-20 11:52:00,
2018-01-20 05:57:00,48.4,43.5,30.07,SSW,204,14.0,20.0,83,0.00,,,0.00,WeatherCatV2.44B2,2018-01-20 11:57:00,
2018-01-20 06:02:00,48.4,43.5,30.07,SSW,209,12.0,21.0,83,0.00,,,0.00,WeatherCatV2.44B2,2018-01-20 12:02:00,
2018-01-20 06:07:00,48.4,43.8,30.07,SSW,197,19.0,19.0,84,0.00,,,0.00,WeatherCatV2.44B2,2018-01-20 12:07:00,
2018-01-20 06:12:00,48.4,43.8,30.07,SSW,205,13.0,18.0,84,0.00,,,0.00,WeatherCatV2.44B2,2018-01-20 12:12:00,
2018-01-20 06:17:00,48.4,44.1,30.07,SSW,200,9.0,18.0,85,0.00,,,0.00,WeatherCatV2.44B2,2018-01-20 12:17:00,
2018-01-20 06:22:00,48.3,44.0,30.07,SSW,197,12.0,20.0,85,0.00,,,0.00,WeatherCatV2.44B2,2018-01-20 12:22:00,
2018-01-20 06:27:00,48.3,44.0,30.07,SSW,196,16.0,19.0,85,0.00,,,0.00,WeatherCatV2.44B2,2018-01-20 12:27:00,
2018-01-20 06:32:00,48.3,44.0,30.07,South,169,12.0,15.0,85,0.00,,,0.00,WeatherCatV2.44B2,2018-01-20 12:32:00,
2018-01-20 06:37:00,48.3,44.3,30.07,South,191,9.0,16.0,86,0.00,,,0.00,WeatherCatV2.44B2,2018-01-20 12:37:00,
2018-01-20 06:42:00,48.3,44.3,30.07,SSW,198,14.0,15.0,86,0.00,,,0.00,WeatherCatV2.44B2,2018-01-20 12:42:00,
2018-01-20 06:47:00,48.5,44.8,30.07,SSW,202,12.0,22.0,87,0.00,,,0.00,WeatherCatV2.44B2,2018-01-20 12:47:00,
2018-01-20 06:52:00,48.5,44.8,30.07,South,184,11.0,15.0,87,0.00,,,0.00,WeatherCatV2.44B2,2018-01-20 12:52:00,
2018-01-20 06:57:00,48.5,44.8,30.07,SSW,198,11.0,21.0,87,0.00,,,0.00,WeatherCatV2.44B2,2018-01-20 12:57:00,
2018-01-20 07:02:00,48.5,44.8,30.07,South,188,11.0,22.0,87,0.00,,,0.00,WeatherCatV2.44B2,2018-01-20 13:02:00,
2018-01-20 07:07:00,48.5,44.8,30.07,SSW,196,14.0,20.0,87,0.00,,,0.00,WeatherCatV2.44B2,2018-01-20 13:07:00,
2018-01-20 07:12:00,48.4,44.7,30.07,South,189,10.0,15.0,87,0.00,,,0.00,WeatherCatV2.44B2,2018-01-20 13:12:00,
2018-01-20 07:17:00,48.5,44.8,30.07,SSW,192,13.0,19.0,87,0.00,,,0.00,WeatherCatV2.44B2,2018-01-20 13:17:00,
2018-01-20 07:22:00,48.5,44.8,30.06,South,189,16.0,21.0,87,0.00,,,0.00,WeatherCatV2.44B2,2018-01-20 13:22:00,
2018-01-20 07:27:00,48.6,44.9,30.07,South,188,10.0,14.0,87,0.00,,,0.00,WeatherCatV2.44B2,2018-01-20 13:27:00,
2018-01-20 07:32:00,48.7,45.3,30.07,South,188,14.0,16.0,88,0.00,,,0.00,WeatherCatV2.44B2,2018-01-20 13:32:00,
2018-01-20 07:37:00,48.7,45.3,30.07,South,185,9.0,14.0,88,0.00,,,0.00,WeatherCatV2.44B2,2018-01-20 13:37:00,
2018-01-20 07:42:00,48.8,45.4,30.07,SSW,200,11.0,15.0,88,0.00,,,0.00,WeatherCatV2.44B2,2018-01-20 13:42:00,
2018-01-20 07:47:00,48.9,45.5,30.07,South,182,9.0,14.0,88,0.00,,,0.00,WeatherCatV2.44B2,2018-01-20 13:47:00,
2018-01-20 07:52:00,49.0,45.3,30.07,South,175,13.0,13.0,87,0.00,,,0.00,WeatherCatV2.44B2,2018-01-20 13:52:00,
2018-01-20 07:57:00,49.0,45.3,30.07,South,184,10.0,15.0,87,0.00,,,0.00,WeatherCatV2.44B2,2018-01-20 13:57:00,
2018-01-20 08:02:00,49.1,45.4,30.07,SSW,202,12.0,16.0,87,0.00,,,0.00,WeatherCatV2.44B2,2018-01-20 14:02:00,
2018-01-20 08:07:00,49.3,45.9,30.07,South,175,11.0,18.0,88,0.00,,,0.00,WeatherCatV2.44B2,2018-01-20 14:07:00,
2018-01-20 08:12:00,49.4,45.7,30.07,SSW,200,14.0,18.0,87,0.00,,,0.00,WeatherCatV2.44B2,2018-01-20 14:12:00,
2018-01-20 08:17:00,49.6,45.9,30.07,South,184,14.0,18.0,87,0.00,,,0.00,WeatherCatV2.44B2,2018-01-20 14:17:00,
2018-01-20 08:22:00,49.7,46.0,30.07,South,190,19.0,22.0,87,0.00,,,0.00,WeatherCatV2.44B2,2018-01-20 14:22:00,
2018-01-20 08:27:00,49.9,46.2,30.07,SSW,192,11.0,18.0,87,0.00,,,0.00,WeatherCatV2.44B2,2018-01-20 14:27:00,
2018-01-20 08:32:00,50.0,46.3,30.07,South,190,13.0,18.0,87,0.00,,,0.00,WeatherCatV2.44B2,2018-01-20 14:32:00,
2018-01-20 08:37:00,50.2,46.5,30.07,SSW,192,14.0,16.0,87,0.00,,,0.00,WeatherCatV2.44B2,2018-01-20 14:37:00,
2018-01-20 08:42:00,50.4,46.7,30.07,SSW,195,13.0,19.0,87,0.00,,,0.00,WeatherCatV2.44B2,2018-01-20 14:42:00,
2018-01-20 08:47:00,50.5,46.5,30.08,South,191,12.0,20.0,86,0.00,,,0.00,WeatherCatV2.44B2,2018-01-20 14:47:00,
2018-01-20 08:52:00,50.7,46.7,30.07,SSW,198,12.0,20.0,86,0.00,,,0.00,WeatherCatV2.44B2,2018-01-20 14:52:00,
2018-01-20 08:57:00,50.9,46.9,30.07,SSW,196,12.0,19.0,86,0.00,,,0.00,WeatherCatV2.44B2,2018-01-20 14:57:00,
2018-01-20 09:02:00,51.0,47.0,30.08,SSW,196,18.0,21.0,86,0.00,,,0.00,WeatherCatV2.44B2,2018-01-20 15:02:00,
2018-01-20 09:07:00,51.1,46.8,30.08,SSW,205,13.0,20.0,85,0.00,,,0.00,WeatherCatV2.44B2,2018-01-20 15:07:00,
2018-01-20 09:09:00,51.2,46.8,30.08,SSW,198,12.0,20.0,85,0.00,,,0.00,WeatherCatV2.44B2,2018-01-20 15:09:00,
2018-01-20 09:14:00,51.2,46.8,30.08,SSW,199,13.0,21.0,85,0.00,,,0.00,WeatherCatV2.44B2,2018-01-20 15:14:00,
2018-01-20 09:19:00,51.3,46.9,30.08,SSW,202,10.0,15.0,85,0.00,,,0.00,WeatherCatV2.44B2,2018-01-20 15:19:00,
2018-01-20 09:24:00,51.4,47.0,30.08,South,182,13.0,19.0,85,0.00,,,0.00,WeatherCatV2.44B2,2018-01-20 15:24:00,
2018-01-20 09:29:00,51.4,46.7,30.08,South,190,12.0,21.0,84,0.00,,,0.00,WeatherCatV2.44B2,2018-01-20 15:29:00,
2018-01-20 09:34:00,51.5,46.8,30.09,SSW,196,18.0,18.0,84,0.00,,,0.00,WeatherCatV2.44B2,2018-01-20 15:34:00,
2018-01-20 09:39:00,51.6,46.9,30.09,South,183,12.0,21.0,84,0.00,,,0.00,WeatherCatV2.44B2,2018-01-20 15:39:00,
2018-01-20 09:44:00,51.6,46.9,30.09,SSW,199,16.0,20.0,84,0.00,,,0.00,WeatherCatV2.44B2,2018-01-20 15:44:00,